Time,TemperatureF,DewpointF,PressureIn,WindDirection,WindDirectionDegrees,WindSpeedMPH,WindSpeedGustMPH,Humidity,HourlyPrecipIn,Conditions,Clouds,dailyrainin,SoftwareType,DateUTC
2013-02-15 00:00:00,28.6,24.0,30.31,East,90,3.8,3.8,83,0.00,,,0.00,WUHU21623XXSP,2013-02-15 05:00:00,
2013-02-15 00:05:00,28.6,24.0,30.32,ESE,112,2.9,3.8,82,0.00,,,0.00,WUHU21623XXSP,2013-02-15 05:05:00,
2013-02-15 00:11:00,28.6,23.8,30.33,East,90,2.2,3.8,82,0.00,,,0.00,WUHU21623XXSP,2013-02-15 05:11:00,
2013-02-15 00:15:00,28.2,23.4,30.33,East,90,2.5,2.9,82,0.00,,,0.00,WUHU21623XXSP,2013-02-15 05:15:00,
2013-02-15 00:21:00,28.0,22.9,30.33,ENE,67,0.9,8.5,81,0.00,,,0.00,WUHU21623XXSP,2013-02-15 05:21:00,
2013-02-15 00:26:00,27.7,22.6,30.34,West,270,5.4,8.5,81,0.00,,,0.00,WUHU21623XXSP,2013-02-15 05:26:00,
2013-02-15 00:31:00,27.7,22.3,30.34,ESE,112,5.1,5.4,80,0.00,,,0.00,WUHU21623XXSP,2013-02-15 05:31:00,
2013-02-15 00:36:00,27.5,21.8,30.34,ESE,112,0.0,5.1,79,0.00,,,0.00,WUHU21623XXSP,2013-02-15 05:36:00,
2013-02-15 00:41:00,27.1,21.4,30.34,ENE,67,0.0,5.1,79,0.00,,,0.00,WUHU21623XXSP,2013-02-15 05:41:00,
2013-02-15 00:46:00,27.0,21.4,30.35,SE,135,0.0,1.8,79,0.00,,,0.00,WUHU21623XXSP,2013-02-15 05:46:00,
2013-02-15 00:51:00,27.0,21.3,30.35,SSE,157,1.8,7.4,79,0.00,,,0.00,WUHU21623XXSP,2013-02-15 05:51:00,
2013-02-15 00:56:00,26.8,21.1,30.35,SSE,157,0.0,7.4,79,0.00,,,0.00,WUHU21623XXSP,2013-02-15 05:56:00,
2013-02-15 01:01:00,26.8,21.1,30.35,ESE,112,4.3,4.3,79,0.00,,,0.00,WUHU21623XXSP,2013-02-15 06:01:00,
2013-02-15 01:06:00,26.8,21.1,30.35,ESE,112,1.3,4.3,79,0.00,,,0.00,WUHU21623XXSP,2013-02-15 06:06:00,
2013-02-15 01:11:00,26.8,21.1,30.36,SSW,202,0.0,2.2,79,0.00,,,0.00,WUHU21623XXSP,2013-02-15 06:11:00,
2013-02-15 01:16:00,26.6,20.9,30.36,SE,135,0.0,2.2,79,0.00,,,0.00,WUHU21623XXSP,2013-02-15 06:16:00,
2013-02-15 01:21:00,26.6,20.9,30.35,SSE,157,0.0,0.0,79,0.00,,,0.00,WUHU21623XXSP,2013-02-15 06:21:00,
2013-02-15 01:26:00,26.4,20.7,30.36,ESE,112,0.0,0.0,79,0.00,,,0.00,WUHU21623XXSP,2013-02-15 06:26:00,
2013-02-15 01:31:00,26.6,20.9,30.36,ENE,67,2.5,2.5,79,0.00,,,0.00,WUHU21623XXSP,2013-02-15 06:31:00,
2013-02-15 01:37:00,26.6,21.2,30.36,ESE,112,0.0,3.1,80,0.00,,,0.00,WUHU21623XXSP,2013-02-15 06:37:00,
2013-02-15 01:42:00,26.6,21.2,30.36,SE,135,0.0,3.1,80,0.00,,,0.00,WUHU21623XXSP,2013-02-15 06:42:00,
2013-02-15 01:47:00,26.6,20.9,30.36,East,90,3.6,3.6,79,0.00,,,0.00,WUHU21623XXSP,2013-02-15 06:47:00,
2013-02-15 01:52:00,26.4,20.7,30.36,SSW,202,5.1,5.1,79,0.00,,,0.00,WUHU21623XXSP,2013-02-15 06:52:00,
2013-02-15 01:57:00,26.4,20.7,30.37,East,90,1.6,5.1,79,0.00,,,0.00,WUHU21623XXSP,2013-02-15 06:57:00,
2013-02-15 02:02:00,26.4,20.4,30.36,NE,45,2.7,5.1,78,0.00,,,0.00,WUHU21623XXSP,2013-02-15 07:02:00,
2013-02-15 02:07:00,26.1,19.8,30.37,East,90,2.0,2.7,77,0.00,,,0.00,WUHU21623XXSP,2013-02-15 07:07:00,
2013-02-15 02:12:00,25.9,19.6,30.37,ENE,67,3.8,3.8,77,0.00,,,0.00,WUHU21623XXSP,2013-02-15 07:12:00,
2013-02-15 02:17:00,25.7,19.8,30.38,ESE,112,0.9,3.8,78,0.00,,,0.00,WUHU21623XXSP,2013-02-15 07:17:00,
2013-02-15 02:22:00,25.7,19.4,30.37,SE,135,4.3,5.1,77,0.00,,,0.00,WUHU21623XXSP,2013-02-15 07:22:00,
2013-02-15 02:27:00,25.7,19.4,30.37,South,180,0.0,11.6,77,0.00,,,0.00,WUHU21623XXSP,2013-02-15 07:27:00,
2013-02-15 02:32:00,25.5,19.3,30.37,ESE,112,0.0,11.6,77,0.00,,,0.00,WUHU21623XXSP,2013-02-15 07:32:00,
2013-02-15 02:37:00,25.5,19.3,30.37,ENE,67,0.0,2.0,77,0.00,,,0.00,WUHU21623XXSP,2013-02-15 07:37:00,
2013-02-15 02:42:00,25.3,19.1,30.38,NE,45,0.0,12.8,77,0.00,,,0.00,WUHU21623XXSP,2013-02-15 07:42:00,
2013-02-15 02:47:00,25.2,18.9,30.38,South,180,2.0,12.8,77,0.00,,,0.00,WUHU21623XXSP,2013-02-15 07:47:00,
2013-02-15 02:52:00,25.2,18.9,30.38,WSW,247,0.9,2.0,77,0.00,,,0.00,WUHU21623XXSP,2013-02-15 07:52:00,
2013-02-15 02:57:00,25.0,18.8,30.38,SSE,157,0.0,0.9,77,0.00,,,0.00,WUHU21623XXSP,2013-02-15 07:57:00,
2013-02-15 03:02:00,25.0,18.8,30.38,South,180,3.8,3.8,77,0.00,,,0.00,WUHU21623XXSP,2013-02-15 08:02:00,
2013-02-15 03:07:00,25.0,18.8,30.39,ESE,112,0.0,3.8,77,0.00,,,0.00,WUHU21623XXSP,2013-02-15 08:07:00,
2013-02-15 03:12:00,25.0,18.8,30.39,ESE,112,2.5,8.9,77,0.00,,,0.00,WUHU21623XXSP,2013-02-15 08:12:00,
2013-02-15 03:21:00,24.8,18.3,30.39,SE,135,0.0,14.1,76,0.00,,,0.00,WUHU21623XXSP,2013-02-15 08:21:00,
2013-02-15 03:26:00,24.6,18.1,30.39,ESE,112,1.6,8.5,76,0.00,,,0.00,WUHU21623XXSP,2013-02-15 08:26:00,
2013-02-15 03:31:00,24.6,18.1,30.39,SSW,202,0.0,8.5,76,0.00,,,0.00,WUHU21623XXSP,2013-02-15 08:31:00,
2013-02-15 03:36:00,24.4,17.9,30.39,WSW,247,2.5,2.5,76,0.00,,,0.00,WUHU21623XXSP,2013-02-15 08:36:00,
2013-02-15 03:41:00,24.4,17.9,30.40,South,180,0.0,2.5,76,0.00,,,0.00,WUHU21623XXSP,2013-02-15 08:41:00,
2013-02-15 03:46:00,24.4,17.9,30.40,ESE,112,1.8,1.8,76,0.00,,,0.00,WUHU21623XXSP,2013-02-15 08:46:00,
2013-02-15 03:51:00,24.1,17.6,30.40,WSW,247,3.6,3.6,76,0.00,,,0.00,WUHU21623XXSP,2013-02-15 08:51:00,
2013-02-15 03:57:00,24.1,17.6,30.40,NNE,22,2.5,3.6,76,0.00,,,0.00,WUHU21623XXSP,2013-02-15 08:57:00,
2013-02-15 04:02:00,24.1,17.6,30.40,ENE,67,8.3,8.3,76,0.00,,,0.00,WUHU21623XXSP,2013-02-15 09:02:00,
2013-02-15 04:07:00,23.9,17.4,30.40,SE,135,0.0,8.3,76,0.00,,,0.00,WUHU21623XXSP,2013-02-15 09:07:00,
2013-02-15 04:12:00,23.9,17.4,30.41,East,90,0.0,0.0,76,0.00,,,0.00,WUHU21623XXSP,2013-02-15 09:12:00,
2013-02-15 04:17:00,23.7,17.2,30.41,East,90,0.0,2.9,76,0.00,,,0.00,WUHU21623XXSP,2013-02-15 09:17:00,
2013-02-15 04:22:00,23.5,17.1,30.41,SSE,157,0.0,2.9,76,0.00,,,0.00,WUHU21623XXSP,2013-02-15 09:22:00,
2013-02-15 04:27:00,23.5,17.1,30.41,East,90,2.0,3.1,76,0.00,,,0.00,WUHU21623XXSP,2013-02-15 09:27:00,
2013-02-15 04:32:00,23.2,16.7,30.42,East,90,0.0,3.1,76,0.00,,,0.00,WUHU21623XXSP,2013-02-15 09:32:00,
2013-02-15 04:37:00,23.0,16.7,30.43,West,270,0.0,0.0,76,0.00,,,0.00,WUHU21623XXSP,2013-02-15 09:37:00,
2013-02-15 04:43:00,22.8,16.4,30.42,South,180,0.0,0.0,76,0.00,,,0.00,WUHU21623XXSP,2013-02-15 09:43:00,
2013-02-15 04:48:00,22.8,16.4,30.42,ESE,112,0.0,2.0,76,0.00,,,0.00,WUHU21623XXSP,2013-02-15 09:48:00,
2013-02-15 04:53:00,22.6,16.5,30.43,East,90,0.0,2.0,77,0.00,,,0.00,WUHU21623XXSP,2013-02-15 09:53:00,
2013-02-15 04:58:00,22.5,16.3,30.43,SSE,157,0.0,0.0,77,0.00,,,0.00,WUHU21623XXSP,2013-02-15 09:58:00,
2013-02-15 05:03:00,22.5,16.3,30.43,SSE,157,0.0,0.0,77,0.00,,,0.00,WUHU21623XXSP,2013-02-15 10:03:00,
2013-02-15 05:09:00,22.1,16.0,30.43,ESE,112,0.0,0.0,77,0.00,,,0.00,WUHU21623XXSP,2013-02-15 10:09:00,
2013-02-15 05:14:00,21.9,15.8,30.44,East,90,1.6,1.6,77,0.00,,,0.00,WUHU21623XXSP,2013-02-15 10:14:00,
2013-02-15 05:19:00,21.7,15.8,30.44,East,90,0.0,1.6,77,0.00,,,0.00,WUHU21623XXSP,2013-02-15 10:19:00,
2013-02-15 05:25:00,21.7,15.6,30.44,East,90,2.9,2.9,77,0.00,,,0.00,WUHU21623XXSP,2013-02-15 10:25:00,
2013-02-15 05:32:00,21.6,15.4,30.45,East,90,0.9,2.9,77,0.00,,,0.00,WUHU21623XXSP,2013-02-15 10:32:00,
2013-02-15 05:38:00,21.4,15.2,30.45,SE,135,0.0,1.6,77,0.00,,,0.00,WUHU21623XXSP,2013-02-15 10:38:00,
2013-02-15 05:44:00,21.4,15.5,30.45,SE,135,0.0,1.6,78,0.00,,,0.00,WUHU21623XXSP,2013-02-15 10:44:00,
2013-02-15 05:49:00,21.0,15.2,30.45,ESE,112,0.0,0.0,78,0.00,,,0.00,WUHU21623XXSP,2013-02-15 10:49:00,
2013-02-15 05:54:00,21.0,15.2,30.46,SE,135,0.0,0.0,78,0.00,,,0.00,WUHU21623XXSP,2013-02-15 10:54:00,
2013-02-15 05:59:00,21.0,15.2,30.46,East,90,0.0,2.5,78,0.00,,,0.00,WUHU21623XXSP,2013-02-15 10:59:00,
2013-02-15 06:04:00,21.0,15.2,30.46,ESE,112,1.3,2.5,78,0.00,,,0.00,WUHU21623XXSP,2013-02-15 11:04:00,
2013-02-15 06:09:00,20.8,15.0,30.46,SSE,157,0.0,1.3,78,0.00,,,0.00,WUHU21623XXSP,2013-02-15 11:09:00,
2013-02-15 06:16:00,20.8,15.0,30.46,South,180,2.2,2.2,78,0.00,,,0.00,WUHU21623XXSP,2013-02-15 11:16:00,
2013-02-15 06:21:00,20.8,15.0,30.46,South,180,2.2,2.2,78,0.00,,,0.00,WUHU21623XXSP,2013-02-15 11:21:00,
2013-02-15 06:26:00,20.8,15.0,30.46,ESE,112,0.0,2.2,78,0.00,,,0.00,WUHU21623XXSP,2013-02-15 11:26:00,
2013-02-15 06:32:00,20.8,15.0,30.46,ESE,112,0.0,0.0,78,0.00,,,0.00,WUHU21623XXSP,2013-02-15 11:32:00,
2013-02-15 06:37:00,20.5,15.0,30.46,East,90,0.7,0.7,79,0.00,,,0.00,WUHU21623XXSP,2013-02-15 11:37:00,
2013-02-15 06:42:00,20.5,15.0,30.46,NNE,22,0.0,0.7,79,0.00,,,0.00,WUHU21623XXSP,2013-02-15 11:42:00,
2013-02-15 06:48:00,20.5,15.0,30.47,East,90,0.0,0.7,79,0.00,,,0.00,WUHU21623XXSP,2013-02-15 11:48:00,
2013-02-15 06:53:00,20.3,14.8,30.47,SSE,157,0.0,0.0,79,0.00,,,0.00,WUHU21623XXSP,2013-02-15 11:53:00,
2013-02-15 06:58:00,20.1,14.6,30.47,SSW,202,1.6,1.6,79,0.00,,,0.00,WUHU21623XXSP,2013-02-15 11:58:00,
2013-02-15 07:03:00,20.1,14.6,30.47,West,270,0.0,1.6,79,0.00,,,0.00,WUHU21623XXSP,2013-02-15 12:03:00,
2013-02-15 07:08:00,19.9,14.4,30.47,NNE,22,1.3,1.3,79,0.00,,,0.00,WUHU21623XXSP,2013-02-15 12:08:00,
2013-02-15 07:14:00,19.9,14.4,30.48,WSW,247,0.0,1.3,80,0.00,,,0.00,WUHU21623XXSP,2013-02-15 12:14:00,
2013-02-15 07:20:00,19.9,14.7,30.48,East,90,0.0,1.6,80,0.00,,,0.00,WUHU21623XXSP,2013-02-15 12:20:00,
2013-02-15 07:27:00,19.9,14.7,30.48,WSW,247,0.0,1.6,80,0.00,,,0.00,WUHU21623XXSP,2013-02-15 12:27:00,
2013-02-15 07:32:00,19.9,14.7,30.48,ESE,112,0.0,0.0,80,0.00,,,0.00,WUHU21623XXSP,2013-02-15 12:32:00,
2013-02-15 07:33:00,19.9,14.7,30.48,ESE,112,0.0,0.0,80,0.00,,,0.00,WUHU21623XXSP,2013-02-15 12:33:00,
2013-02-15 07:36:00,19.8,14.5,30.48,East,90,0.0,0.0,80,0.00,,,0.00,WUHU21623XXSP,2013-02-15 12:36:00,
2013-02-15 07:48:00,19.9,14.7,30.49,ESE,112,0.0,0.0,80,0.00,,,0.00,WUHU21623XXSP,2013-02-15 12:48:00,
2013-02-15 07:56:00,19.8,14.5,30.49,SSE,157,0.0,0.0,80,0.00,,,0.00,WUHU21623XXSP,2013-02-15 12:56:00,
2013-02-15 08:05:00,19.9,14.7,30.49,ESE,112,0.0,0.0,80,0.00,,,0.00,WUHU21623XXSP,2013-02-15 13:05:00,
2013-02-15 08:06:00,19.9,14.7,30.49,ESE,112,1.1,1.1,80,0.00,,,0.00,WUHU21623XXSP,2013-02-15 13:06:00,
2013-02-15 08:19:00,19.8,14.5,30.49,East,90,0.0,1.1,80,0.00,,,0.00,WUHU21623XXSP,2013-02-15 13:19:00,
2013-02-15 08:24:00,19.9,14.7,30.50,East,90,0.0,0.0,80,0.00,,,0.00,WUHU21623XXSP,2013-02-15 13:24:00,
2013-02-15 08:29:00,19.9,14.7,30.51,East,90,0.0,0.0,80,0.00,,,0.00,WUHU21623XXSP,2013-02-15 13:29:00,
2013-02-15 08:34:00,20.5,15.3,30.50,SSW,202,0.0,0.7,80,0.00,,,0.00,WUHU21623XXSP,2013-02-15 13:34:00,
2013-02-15 08:40:00,20.8,15.6,30.51,ESE,112,0.0,0.7,80,0.00,,,0.00,WUHU21623XXSP,2013-02-15 13:40:00,
2013-02-15 08:45:00,21.0,15.8,30.51,East,90,0.0,3.4,80,0.00,,,0.00,WUHU21623XXSP,2013-02-15 13:45:00,
2013-02-15 08:50:00,21.6,16.0,30.51,South,180,0.0,3.4,79,0.00,,,0.00,WUHU21623XXSP,2013-02-15 13:50:00,
2013-02-15 09:00:00,21.9,16.4,30.51,ESE,112,2.2,2.2,79,0.00,,,0.00,WUHU21623XXSP,2013-02-15 14:00:00,
2013-02-15 09:06:00,21.9,16.4,30.51,ESE,112,2.2,2.2,79,0.00,,,0.00,WUHU21623XXSP,2013-02-15 14:06:00,
2013-02-15 09:11:00,22.6,16.6,30.52,ESE,112,0.0,2.0,78,0.00,,,0.00,WUHU21623XXSP,2013-02-15 14:11:00,
2013-02-15 09:16:00,22.8,17.0,30.52,East,90,0.0,0.0,78,0.00,,,0.00,WUHU21623XXSP,2013-02-15 14:16:00,
2013-02-15 09:21:00,22.8,17.0,30.52,East,90,0.0,0.0,77,0.00,,,0.00,WUHU21623XXSP,2013-02-15 14:21:00,
2013-02-15 09:26:00,22.8,16.7,30.52,South,180,0.0,0.0,77,0.00,,,0.00,WUHU21623XXSP,2013-02-15 14:26:00,
2013-02-15 09:28:00,23.0,16.9,30.53,NNE,22,1.3,2.0,77,0.00,,,0.00,WUHU21623XXSP,2013-02-15 14:28:00,
2013-02-15 09:34:00,23.2,17.0,30.52,SW,225,0.0,2.0,77,0.00,,,0.00,WUHU21623XXSP,2013-02-15 14:34:00,
2013-02-15 09:38:00,23.5,17.1,30.53,ESE,112,2.0,2.0,76,0.00,,,0.00,WUHU21623XXSP,2013-02-15 14:38:00,
2013-02-15 09:43:00,23.7,17.2,30.53,East,90,0.0,2.0,76,0.00,,,0.00,WUHU21623XXSP,2013-02-15 14:43:00,
2013-02-15 09:49:00,24.1,17.6,30.53,East,90,0.0,0.0,76,0.00,,,0.00,WUHU21623XXSP,2013-02-15 14:49:00,
2013-02-15 09:53:00,24.4,17.6,30.53,SW,225,0.0,0.0,76,0.00,,,0.00,WUHU21623XXSP,2013-02-15 14:53:00,
2013-02-15 09:58:00,24.6,17.8,30.53,SE,135,3.1,3.1,75,0.00,,,0.00,WUHU21623XXSP,2013-02-15 14:58:00,
2013-02-15 10:04:00,25.0,18.1,30.53,SE,135,0.0,3.1,75,0.00,,,0.00,WUHU21623XXSP,2013-02-15 15:04:00,
2013-02-15 10:08:00,25.0,18.1,30.53,NNE,22,0.0,0.0,75,0.00,,,0.00,WUHU21623XXSP,2013-02-15 15:08:00,
2013-02-15 10:15:00,25.5,18.3,30.53,ENE,67,3.4,3.4,74,0.00,,,0.00,WUHU21623XXSP,2013-02-15 15:15:00,
2013-02-15 10:17:00,25.5,18.3,30.53,ENE,67,3.4,3.4,74,0.00,,,0.00,WUHU21623XXSP,2013-02-15 15:17:00,
2013-02-15 10:19:00,25.5,18.3,30.53,South,180,2.2,3.4,74,0.00,,,0.00,WUHU21623XXSP,2013-02-15 15:19:00,
2013-02-15 10:25:00,25.5,18.0,30.54,East,90,0.0,3.4,73,0.00,,,0.00,WUHU21623XXSP,2013-02-15 15:25:00,
2013-02-15 10:30:00,25.7,18.3,30.54,East,90,0.0,0.0,74,0.00,,,0.00,WUHU21623XXSP,2013-02-15 15:30:00,
2013-02-15 10:34:00,25.7,18.2,30.54,East,90,5.6,5.6,73,0.00,,,0.00,WUHU21623XXSP,2013-02-15 15:34:00,
2013-02-15 10:40:00,25.7,17.9,30.53,ENE,67,5.4,5.6,72,0.00,,,0.00,WUHU21623XXSP,2013-02-15 15:40:00,
2013-02-15 10:45:00,25.5,17.7,30.54,East,90,1.1,5.4,72,0.00,,,0.00,WUHU21623XXSP,2013-02-15 15:45:00,
2013-02-15 10:48:00,25.5,18.0,30.53,South,180,0.0,5.4,73,0.00,,,0.00,WUHU21623XXSP,2013-02-15 15:48:00,
2013-02-15 10:51:00,25.7,18.2,30.54,ESE,112,0.0,5.4,73,0.00,,,0.00,WUHU21623XXSP,2013-02-15 15:51:00,
2013-02-15 10:55:00,26.2,18.7,30.54,South,180,0.0,0.0,73,0.00,,,0.00,WUHU21623XXSP,2013-02-15 15:55:00,
2013-02-15 11:07:00,26.8,19.2,30.54,ESE,112,0.0,2.9,73,0.00,,,0.00,WUHU21623XXSP,2013-02-15 16:07:00,
2013-02-15 11:12:00,26.6,18.8,30.55,ESE,112,0.0,2.7,72,0.00,,,0.00,WUHU21623XXSP,2013-02-15 16:12:00,
2013-02-15 11:17:00,26.8,19.2,30.54,SE,135,0.0,2.0,73,0.00,,,0.00,WUHU21623XXSP,2013-02-15 16:17:00,
2013-02-15 11:22:00,27.0,19.4,30.54,ESE,112,0.0,2.0,73,0.00,,,0.00,WUHU21623XXSP,2013-02-15 16:22:00,
2013-02-15 11:27:00,27.0,19.1,30.55,East,90,0.0,0.7,72,0.00,,,0.00,WUHU21623XXSP,2013-02-15 16:27:00,
2013-02-15 11:32:00,27.1,19.0,30.54,East,90,0.0,2.2,71,0.00,,,0.00,WUHU21623XXSP,2013-02-15 16:32:00,
2013-02-15 11:37:00,27.5,19.3,30.55,SE,135,0.0,2.2,71,0.00,,,0.00,WUHU21623XXSP,2013-02-15 16:37:00,
2013-02-15 11:42:00,27.5,19.0,30.55,South,180,0.0,0.0,70,0.00,,,0.00,WUHU21623XXSP,2013-02-15 16:42:00,
2013-02-15 11:47:00,28.0,19.6,30.54,ESE,112,0.0,1.8,70,0.00,,,0.00,WUHU21623XXSP,2013-02-15 16:47:00,
2013-02-15 11:52:00,28.0,19.6,30.55,East,90,2.7,2.7,70,0.00,,,0.00,WUHU21623XXSP,2013-02-15 16:52:00,
2013-02-15 11:57:00,27.9,19.0,30.55,NNE,22,0.0,2.7,69,0.00,,,0.00,WUHU21623XXSP,2013-02-15 16:57:00,
2013-02-15 12:02:00,27.7,18.9,30.54,East,90,1.3,2.2,69,0.00,,,0.00,WUHU21623XXSP,2013-02-15 17:02:00,
2013-02-15 12:07:00,27.7,18.5,30.54,WSW,247,0.0,6.7,68,0.00,,,0.00,WUHU21623XXSP,2013-02-15 17:07:00,
2013-02-15 12:12:00,28.2,19.4,30.54,East,90,0.0,6.7,69,0.00,,,0.00,WUHU21623XXSP,2013-02-15 17:12:00,
2013-02-15 12:18:00,28.6,19.4,30.54,West,270,0.0,0.0,68,0.00,,,0.00,WUHU21623XXSP,2013-02-15 17:18:00,
2013-02-15 12:23:00,28.8,19.5,30.54,West,270,5.6,5.6,68,0.00,,,0.00,WUHU21623XXSP,2013-02-15 17:23:00,
2013-02-15 12:28:00,29.1,19.5,30.54,NNE,22,0.0,5.6,67,0.00,,,0.00,WUHU21623XXSP,2013-02-15 17:28:00,
2013-02-15 12:33:00,29.3,19.7,30.54,SSW,202,0.0,0.0,67,0.00,,,0.00,WUHU21623XXSP,2013-02-15 17:33:00,
2013-02-15 12:38:00,29.1,19.5,30.54,ESE,112,0.0,0.0,67,0.00,,,0.00,WUHU21623XXSP,2013-02-15 17:38:00,
2013-02-15 12:43:00,29.1,19.9,30.54,East,90,0.0,2.5,68,0.00,,,0.00,WUHU21623XXSP,2013-02-15 17:43:00,
2013-02-15 12:48:00,29.1,19.9,30.54,SSE,157,2.2,2.5,68,0.00,,,0.00,WUHU21623XXSP,2013-02-15 17:48:00,
2013-02-15 12:53:00,28.9,20.1,30.55,ENE,67,2.0,2.2,69,0.00,,,0.00,WUHU21623XXSP,2013-02-15 17:53:00,
2013-02-15 12:58:00,28.2,19.4,30.55,SSE,157,0.0,2.2,69,0.00,,,0.00,WUHU21623XXSP,2013-02-15 17:58:00,
2013-02-15 13:03:00,28.0,19.6,30.54,ESE,112,0.0,2.0,70,0.00,,,0.00,WUHU21623XXSP,2013-02-15 18:03:00,
2013-02-15 13:08:00,27.7,19.2,30.54,SW,225,0.0,0.0,70,0.00,,,0.00,WUHU21623XXSP,2013-02-15 18:08:00,
2013-02-15 13:13:00,28.0,19.6,30.54,SSE,157,0.0,0.0,70,0.00,,,0.00,WUHU21623XXSP,2013-02-15 18:13:00,
2013-02-15 13:18:00,28.2,19.4,30.54,ESE,112,0.0,0.0,69,0.00,,,0.00,WUHU21623XXSP,2013-02-15 18:18:00,
2013-02-15 13:23:00,28.2,19.0,30.54,ESE,112,1.3,1.3,68,0.00,,,0.00,WUHU21623XXSP,2013-02-15 18:23:00,
2013-02-15 13:28:00,28.2,18.7,30.54,East,90,2.9,4.5,67,0.00,,,0.00,WUHU21623XXSP,2013-02-15 18:28:00,
2013-02-15 13:33:00,28.2,18.7,30.54,ENE,67,2.0,4.5,67,0.00,,,0.00,WUHU21623XXSP,2013-02-15 18:33:00,
2013-02-15 13:38:00,28.2,18.7,30.54,ESE,112,0.0,2.2,67,0.00,,,0.00,WUHU21623XXSP,2013-02-15 18:38:00,
2013-02-15 13:43:00,28.6,19.4,30.54,ESE,112,0.0,0.0,68,0.00,,,0.00,WUHU21623XXSP,2013-02-15 18:43:00,
2013-02-15 13:48:00,28.8,19.2,30.54,WSW,247,0.0,0.0,67,0.00,,,0.00,WUHU21623XXSP,2013-02-15 18:48:00,
2013-02-15 13:53:00,28.9,19.0,30.54,ESE,112,6.0,6.0,66,0.00,,,0.00,WUHU21623XXSP,2013-02-15 18:53:00,
2013-02-15 13:58:00,28.9,18.6,30.54,ESE,112,0.0,6.0,65,0.00,,,0.00,WUHU21623XXSP,2013-02-15 18:58:00,
2013-02-15 14:05:00,29.1,18.8,30.54,ESE,112,0.0,2.2,65,0.00,,,0.00,WUHU21623XXSP,2013-02-15 19:05:00,
2013-02-15 14:10:00,29.1,18.8,30.54,SE,135,0.0,2.2,65,0.00,,,0.00,WUHU21623XXSP,2013-02-15 19:10:00,
2013-02-15 14:15:00,28.8,18.5,30.54,ESE,112,0.0,1.6,65,0.00,,,0.00,WUHU21623XXSP,2013-02-15 19:15:00,
2013-02-15 14:20:00,28.6,17.9,30.54,East,90,2.0,2.0,64,0.00,,,0.00,WUHU21623XXSP,2013-02-15 19:20:00,
2013-02-15 14:25:00,28.6,17.9,30.54,SE,135,0.0,2.0,64,0.00,,,0.00,WUHU21623XXSP,2013-02-15 19:25:00,
2013-02-15 14:30:00,28.9,17.9,30.54,WSW,247,0.0,0.0,64,0.00,,,0.00,WUHU21623XXSP,2013-02-15 19:30:00,
2013-02-15 14:35:00,28.9,17.9,30.54,ENE,67,0.0,4.5,63,0.00,,,0.00,WUHU21623XXSP,2013-02-15 19:35:00,
2013-02-15 14:40:00,28.9,17.9,30.54,East,90,0.0,4.5,63,0.00,,,0.00,WUHU21623XXSP,2013-02-15 19:40:00,
2013-02-15 14:46:00,28.9,17.9,30.54,ESE,112,0.0,0.0,63,0.00,,,0.00,WUHU21623XXSP,2013-02-15 19:46:00,
2013-02-15 14:51:00,29.1,17.9,30.54,NE,45,0.0,0.0,63,0.00,,,0.00,WUHU21623XXSP,2013-02-15 19:51:00,
2013-02-15 14:56:00,28.9,17.9,30.54,East,90,3.8,3.8,63,0.00,,,0.00,WUHU21623XXSP,2013-02-15 19:56:00,
2013-02-15 15:01:00,28.6,17.2,30.54,ESE,112,0.0,3.8,62,0.00,,,0.00,WUHU21623XXSP,2013-02-15 20:01:00,
2013-02-15 15:06:00,28.6,17.2,30.54,ENE,67,0.0,1.8,62,0.00,,,0.00,WUHU21623XXSP,2013-02-15 20:06:00,
2013-02-15 15:11:00,28.6,17.2,30.54,ESE,112,0.0,1.8,62,0.00,,,0.00,WUHU21623XXSP,2013-02-15 20:11:00,
2013-02-15 15:16:00,28.6,17.2,30.54,SE,135,0.0,0.0,62,0.00,,,0.00,WUHU21623XXSP,2013-02-15 20:16:00,
2013-02-15 15:21:00,28.6,17.2,30.54,ESE,112,0.0,2.0,62,0.00,,,0.00,WUHU21623XXSP,2013-02-15 20:21:00,
2013-02-15 15:26:00,28.6,17.6,30.55,West,270,0.0,2.0,63,0.00,,,0.00,WUHU21623XXSP,2013-02-15 20:26:00,
2013-02-15 15:31:00,28.6,17.6,30.54,SW,225,0.0,0.0,63,0.00,,,0.00,WUHU21623XXSP,2013-02-15 20:31:00,
2013-02-15 15:36:00,28.8,17.7,30.54,NW,315,0.0,1.6,63,0.00,,,0.00,WUHU21623XXSP,2013-02-15 20:36:00,
2013-02-15 15:41:00,28.8,17.4,30.54,ESE,112,0.0,1.6,62,0.00,,,0.00,WUHU21623XXSP,2013-02-15 20:41:00,
2013-02-15 15:46:00,28.6,17.4,30.54,SW,225,0.0,0.0,62,0.00,,,0.00,WUHU21623XXSP,2013-02-15 20:46:00,
2013-02-15 15:51:00,28.6,16.9,30.54,ESE,112,0.9,1.3,61,0.00,,,0.00,WUHU21623XXSP,2013-02-15 20:51:00,
2013-02-15 15:56:00,28.4,16.7,30.55,ESE,112,0.0,1.6,61,0.00,,,0.00,WUHU21623XXSP,2013-02-15 20:56:00,
2013-02-15 16:01:00,28.2,16.5,30.55,SSE,157,0.0,1.6,61,0.00,,,0.00,WUHU21623XXSP,2013-02-15 21:01:00,
2013-02-15 16:06:00,28.2,16.2,30.55,SSE,157,0.0,0.9,60,0.00,,,0.00,WUHU21623XXSP,2013-02-15 21:06:00,
2013-02-15 16:11:00,28.2,16.5,30.56,SSE,157,1.8,1.8,61,0.00,,,0.00,WUHU21623XXSP,2013-02-15 21:11:00,
2013-02-15 16:16:00,28.0,16.0,30.56,SE,135,0.0,2.0,60,0.00,,,0.00,WUHU21623XXSP,2013-02-15 21:16:00,
2013-02-15 16:21:00,28.0,16.0,30.55,ESE,112,0.0,2.0,60,0.00,,,0.00,WUHU21623XXSP,2013-02-15 21:21:00,
2013-02-15 16:26:00,27.7,15.6,30.55,East,90,0.0,0.0,60,0.00,,,0.00,WUHU21623XXSP,2013-02-15 21:26:00,
2013-02-15 16:31:00,27.5,15.8,30.56,SE,135,0.0,1.6,61,0.00,,,0.00,WUHU21623XXSP,2013-02-15 21:31:00,
2013-02-15 16:36:00,27.5,15.8,30.56,ESE,112,0.0,1.6,61,0.00,,,0.00,WUHU21623XXSP,2013-02-15 21:36:00,
2013-02-15 16:41:00,27.3,15.6,30.56,East,90,0.0,2.9,61,0.00,,,0.00,WUHU21623XXSP,2013-02-15 21:41:00,
2013-02-15 16:46:00,27.3,15.6,30.56,East,90,0.0,2.9,61,0.00,,,0.00,WUHU21623XXSP,2013-02-15 21:46:00,
2013-02-15 16:51:00,27.1,15.8,30.56,East,90,0.0,0.0,62,0.00,,,0.00,WUHU21623XXSP,2013-02-15 21:51:00,
2013-02-15 16:56:00,27.1,15.8,30.56,ENE,67,0.0,0.0,62,0.00,,,0.00,WUHU21623XXSP,2013-02-15 21:56:00,
2013-02-15 17:01:00,27.0,15.6,30.56,SE,135,0.0,0.0,62,0.00,,,0.00,WUHU21623XXSP,2013-02-15 22:01:00,
2013-02-15 17:06:00,26.8,15.4,30.56,ESE,112,0.0,1.3,62,0.00,,,0.00,WUHU21623XXSP,2013-02-15 22:06:00,
2013-02-15 17:11:00,26.6,15.3,30.56,SE,135,0.0,1.3,62,0.00,,,0.00,WUHU21623XXSP,2013-02-15 22:11:00,
2013-02-15 17:16:00,26.4,15.1,30.56,ESE,112,0.0,0.0,62,0.00,,,0.00,WUHU21623XXSP,2013-02-15 22:16:00,
2013-02-15 17:21:00,26.4,15.1,30.56,ESE,112,0.0,0.0,62,0.00,,,0.00,WUHU21623XXSP,2013-02-15 22:21:00,
2013-02-15 17:26:00,26.4,15.1,30.57,ESE,112,0.0,0.0,62,0.00,,,0.00,WUHU21623XXSP,2013-02-15 22:26:00,
2013-02-15 17:31:00,26.4,15.1,30.57,ESE,112,2.7,2.7,62,0.00,,,0.00,WUHU21623XXSP,2013-02-15 22:31:00,
2013-02-15 17:36:00,26.2,14.9,30.56,South,180,2.9,3.6,62,0.00,,,0.00,WUHU21623XXSP,2013-02-15 22:36:00,
2013-02-15 17:41:00,26.1,14.4,30.57,ESE,112,3.8,3.8,61,0.00,,,0.00,WUHU21623XXSP,2013-02-15 22:41:00,
2013-02-15 17:46:00,25.9,14.2,30.57,East,90,2.5,3.8,61,0.00,,,0.00,WUHU21623XXSP,2013-02-15 22:46:00,
2013-02-15 17:51:00,25.9,14.6,30.57,South,180,0.0,2.5,62,0.00,,,0.00,WUHU21623XXSP,2013-02-15 22:51:00,
2013-02-15 17:56:00,25.7,14.4,30.57,SW,225,0.0,1.8,62,0.00,,,0.00,WUHU21623XXSP,2013-02-15 22:56:00,
2013-02-15 18:01:00,25.7,14.4,30.57,NNW,337,0.0,0.0,62,0.00,,,0.00,WUHU21623XXSP,2013-02-15 23:01:00,
2013-02-15 18:06:00,25.5,14.3,30.58,East,90,0.0,0.0,62,0.00,,,0.00,WUHU21623XXSP,2013-02-15 23:06:00,
2013-02-15 18:11:00,25.3,14.3,30.57,East,90,2.2,2.2,62,0.00,,,0.00,WUHU21623XXSP,2013-02-15 23:11:00,
2013-02-15 18:16:00,25.3,14.1,30.58,South,180,0.0,2.2,62,0.00,,,0.00,WUHU21623XXSP,2013-02-15 23:16:00,
2013-02-15 18:21:00,25.2,13.9,30.58,SSW,202,0.0,0.0,62,0.00,,,0.00,WUHU21623XXSP,2013-02-15 23:21:00,
2013-02-15 18:26:00,25.2,14.3,30.58,ESE,112,0.0,0.0,63,0.00,,,0.00,WUHU21623XXSP,2013-02-15 23:26:00,
2013-02-15 18:31:00,25.0,14.1,30.57,ESE,112,0.0,0.0,63,0.00,,,0.00,WUHU21623XXSP,2013-02-15 23:31:00,
2013-02-15 18:36:00,25.0,14.1,30.58,East,90,0.0,0.0,63,0.00,,,0.00,WUHU21623XXSP,2013-02-15 23:36:00,
2013-02-15 18:41:00,25.0,14.1,30.59,ESE,112,0.0,0.9,63,0.00,,,0.00,WUHU21623XXSP,2013-02-15 23:41:00,
2013-02-15 18:46:00,25.0,14.1,30.58,East,90,0.0,0.9,63,0.00,,,0.00,WUHU21623XXSP,2013-02-15 23:46:00,
2013-02-15 18:51:00,25.0,14.1,30.58,ESE,112,0.0,0.0,63,0.00,,,0.00,WUHU21623XXSP,2013-02-15 23:51:00,
2013-02-15 18:56:00,25.0,14.4,30.59,ESE,112,0.0,0.0,64,0.00,,,0.00,WUHU21623XXSP,2013-02-15 23:56:00,
2013-02-15 19:01:00,25.0,14.4,30.59,SE,135,0.0,0.0,64,0.00,,,0.00,WUHU21623XXSP,2013-02-16 00:01:00,
2013-02-15 19:06:00,25.0,14.4,30.58,East,90,0.0,0.0,64,0.00,,,0.00,WUHU21623XXSP,2013-02-16 00:06:00,
2013-02-15 19:11:00,25.0,14.8,30.59,East,90,0.0,0.0,65,0.00,,,0.00,WUHU21623XXSP,2013-02-16 00:11:00,
2013-02-15 19:16:00,24.6,14.4,30.59,ESE,112,0.0,0.0,65,0.00,,,0.00,WUHU21623XXSP,2013-02-16 00:16:00,
2013-02-15 19:21:00,24.6,14.4,30.59,ENE,67,0.0,0.0,65,0.00,,,0.00,WUHU21623XXSP,2013-02-16 00:21:00,
2013-02-15 19:26:00,24.6,14.4,30.59,ESE,112,0.0,0.0,65,0.00,,,0.00,WUHU21623XXSP,2013-02-16 00:26:00,
2013-02-15 19:31:00,24.6,14.8,30.59,NNW,337,0.0,0.0,66,0.00,,,0.00,WUHU21623XXSP,2013-02-16 00:31:00,
2013-02-15 19:36:00,24.6,14.8,30.60,ESE,112,0.0,0.0,66,0.00,,,0.00,WUHU21623XXSP,2013-02-16 00:36:00,
2013-02-15 19:41:00,24.4,15.0,30.60,SE,135,1.6,2.0,67,0.00,,,0.00,WUHU21623XXSP,2013-02-16 00:41:00,
2013-02-15 19:46:00,24.4,15.0,30.60,WSW,247,2.0,2.0,67,0.00,,,0.00,WUHU21623XXSP,2013-02-16 00:46:00,
2013-02-15 19:51:00,24.4,15.0,30.60,South,180,0.0,2.0,67,0.00,,,0.00,WUHU21623XXSP,2013-02-16 00:51:00,
2013-02-15 19:56:00,24.3,15.2,30.59,ESE,112,0.0,0.0,68,0.00,,,0.00,WUHU21623XXSP,2013-02-16 00:56:00,
2013-02-15 20:02:00,24.1,15.0,30.59,SE,135,1.8,1.8,68,0.00,,,0.00,WUHU21623XXSP,2013-02-16 01:02:00,
2013-02-15 20:07:00,24.1,15.3,30.60,ESE,112,0.0,1.8,69,0.00,,,0.00,WUHU21623XXSP,2013-02-16 01:07:00,
2013-02-15 20:12:00,23.9,15.2,30.60,East,90,3.6,3.6,69,0.00,,,0.00,WUHU21623XXSP,2013-02-16 01:12:00,
2013-02-15 20:17:00,23.7,15.4,30.60,East,90,0.0,3.6,70,0.00,,,0.00,WUHU21623XXSP,2013-02-16 01:17:00,
2013-02-15 20:22:00,23.5,15.2,30.60,ESE,112,0.0,2.0,70,0.00,,,0.00,WUHU21623XXSP,2013-02-16 01:22:00,
2013-02-15 20:27:00,23.5,15.5,30.60,East,90,1.3,1.3,71,0.00,,,0.00,WUHU21623XXSP,2013-02-16 01:27:00,
2013-02-15 20:32:00,23.5,15.5,30.60,East,90,0.0,1.3,71,0.00,,,0.00,WUHU21623XXSP,2013-02-16 01:32:00,
2013-02-15 20:37:00,23.4,15.7,30.60,East,90,1.6,1.6,72,0.00,,,0.00,WUHU21623XXSP,2013-02-16 01:37:00,
2013-02-15 20:42:00,23.2,15.8,30.61,ESE,112,0.0,1.6,73,0.00,,,0.00,WUHU21623XXSP,2013-02-16 01:42:00,
2013-02-15 20:47:00,22.8,15.5,30.61,NE,45,0.0,0.0,73,0.00,,,0.00,WUHU21623XXSP,2013-02-16 01:47:00,
2013-02-15 20:52:00,22.8,15.8,30.61,ESE,112,0.0,2.0,74,0.00,,,0.00,WUHU21623XXSP,2013-02-16 01:52:00,
2013-02-15 20:57:00,22.6,15.6,30.61,East,90,0.9,2.0,74,0.00,,,0.00,WUHU21623XXSP,2013-02-16 01:57:00,
2013-02-15 21:02:00,22.3,15.5,30.61,SSE,157,0.0,0.9,75,0.00,,,0.00,WUHU21623XXSP,2013-02-16 02:02:00,
2013-02-15 21:07:00,22.1,15.3,30.61,ESE,112,0.0,0.0,75,0.00,,,0.00,WUHU21623XXSP,2013-02-16 02:07:00,
2013-02-15 21:12:00,22.1,15.3,30.61,East,90,0.0,0.0,75,0.00,,,0.00,WUHU21623XXSP,2013-02-16 02:12:00,
2013-02-15 21:17:00,21.9,15.2,30.61,WSW,247,0.0,0.0,75,0.00,,,0.00,WUHU21623XXSP,2013-02-16 02:17:00,
2013-02-15 21:22:00,21.9,15.2,30.61,East,90,0.0,0.0,75,0.00,,,0.00,WUHU21623XXSP,2013-02-16 02:22:00,
2013-02-15 21:27:00,21.9,14.9,30.61,East,90,0.0,0.0,74,0.00,,,0.00,WUHU21623XXSP,2013-02-16 02:27:00,
2013-02-15 21:32:00,21.7,14.7,30.61,South,180,0.0,0.0,74,0.00,,,0.00,WUHU21623XXSP,2013-02-16 02:32:00,
2013-02-15 21:37:00,21.7,14.7,30.61,ESE,112,0.0,0.0,74,0.00,,,0.00,WUHU21623XXSP,2013-02-16 02:37:00,
2013-02-15 21:42:00,21.7,14.7,30.61,SSW,202,0.0,0.0,74,0.00,,,0.00,WUHU21623XXSP,2013-02-16 02:42:00,
2013-02-15 21:47:00,21.7,14.7,30.61,ESE,112,0.0,1.6,74,0.00,,,0.00,WUHU21623XXSP,2013-02-16 02:47:00,
2013-02-15 21:52:00,21.6,14.2,30.61,East,90,0.0,1.6,73,0.00,,,0.00,WUHU21623XXSP,2013-02-16 02:52:00,
2013-02-15 21:57:00,21.6,14.2,30.61,ESE,112,0.0,0.0,73,0.00,,,0.00,WUHU21623XXSP,2013-02-16 02:57:00,
2013-02-15 22:02:00,21.6,14.2,30.61,ESE,112,0.0,0.0,73,0.00,,,0.00,WUHU21623XXSP,2013-02-16 03:02:00,
2013-02-15 22:07:00,21.4,14.0,30.61,ENE,67,0.0,0.0,73,0.00,,,0.00,WUHU21623XXSP,2013-02-16 03:07:00,
2013-02-15 22:12:00,21.4,14.0,30.61,ESE,112,0.0,0.0,73,0.00,,,0.00,WUHU21623XXSP,2013-02-16 03:12:00,
2013-02-15 22:17:00,21.4,14.0,30.61,SSE,157,0.0,0.0,73,0.00,,,0.00,WUHU21623XXSP,2013-02-16 03:17:00,
2013-02-15 22:23:00,21.4,14.0,30.61,East,90,0.0,0.0,73,0.00,,,0.00,WUHU21623XXSP,2013-02-16 03:23:00,
2013-02-15 22:28:00,21.4,14.0,30.60,ESE,112,0.0,2.2,73,0.00,,,0.00,WUHU21623XXSP,2013-02-16 03:28:00,
2013-02-15 22:33:00,21.4,14.0,30.60,ESE,112,0.0,2.2,73,0.00,,,0.00,WUHU21623XXSP,2013-02-16 03:33:00,
2013-02-15 22:38:00,21.4,14.0,30.60,ESE,112,0.0,0.0,73,0.00,,,0.00,WUHU21623XXSP,2013-02-16 03:38:00,
2013-02-15 22:43:00,21.2,13.8,30.60,ESE,112,0.0,0.0,73,0.00,,,0.00,WUHU21623XXSP,2013-02-16 03:43:00,
2013-02-15 22:48:00,21.0,13.7,30.59,ESE,112,0.0,0.0,73,0.00,,,0.00,WUHU21623XXSP,2013-02-16 03:48:00,
2013-02-15 22:53:00,21.0,13.7,30.60,SSE,157,0.0,0.0,73,0.00,,,0.00,WUHU21623XXSP,2013-02-16 03:53:00,
2013-02-15 22:58:00,20.5,13.1,30.59,ESE,112,0.0,0.0,73,0.00,,,0.00,WUHU21623XXSP,2013-02-16 03:58:00,
2013-02-15 23:03:00,20.5,13.1,30.59,ESE,112,0.0,0.0,73,0.00,,,0.00,WUHU21623XXSP,2013-02-16 04:03:00,
2013-02-15 23:08:00,20.1,12.8,30.59,ESE,112,0.0,0.0,73,0.00,,,0.00,WUHU21623XXSP,2013-02-16 04:08:00,
2013-02-15 23:13:00,19.9,12.6,30.59,ESE,112,0.0,0.0,73,0.00,,,0.00,WUHU21623XXSP,2013-02-16 04:13:00,
2013-02-15 23:18:00,19.6,11.9,30.60,ESE,112,0.0,0.0,72,0.00,,,0.00,WUHU21623XXSP,2013-02-16 04:18:00,
2013-02-15 23:23:00,19.2,12.0,30.60,ESE,112,0.0,0.0,73,0.00,,,0.00,WUHU21623XXSP,2013-02-16 04:23:00,
2013-02-15 23:28:00,19.0,11.7,30.59,ESE,112,0.0,0.0,73,0.00,,,0.00,WUHU21623XXSP,2013-02-16 04:28:00,
2013-02-15 23:33:00,18.9,11.5,30.59,ESE,112,0.0,0.0,73,0.00,,,0.00,WUHU21623XXSP,2013-02-16 04:33:00,
2013-02-15 23:38:00,18.5,11.2,30.59,ESE,112,0.0,0.0,73,0.00,,,0.00,WUHU21623XXSP,2013-02-16 04:38:00,
2013-02-15 23:43:00,18.3,11.0,30.59,ESE,112,0.0,0.0,73,0.00,,,0.00,WUHU21623XXSP,2013-02-16 04:43:00,
2013-02-15 23:48:00,18.0,10.7,30.58,ESE,112,0.0,0.0,73,0.00,,,0.00,WUHU21623XXSP,2013-02-16 04:48:00,
2013-02-15 23:53:00,17.8,10.5,30.59,ESE,112,0.0,0.0,74,0.00,,,0.00,WUHU21623XXSP,2013-02-16 04:53:00,
2013-02-15 23:58:00,17.4,10.5,30.59,ESE,112,0.0,0.0,74,0.00,,,0.00,WUHU21623XXSP,2013-02-16 04:58:00,